Tracking 25710 objects as of 6-Jul-2022
HD Live streaming from Space Station
objects crossing your sky now

STARLINK-3837

Track STARLINK-3837 now!
10-day predictions
STARLINK-3837 is classified as:


NORAD ID: 52358
Int'l Code: 2022-045AD
Perigee: 464.9 km
Apogee: 466.8 km
Inclination: 53.2 °
Period: 93.8 minutes
Semi major axis: 6836 km
RCS: Unknown
Launch date: April 29, 2022
Source: United States (US)
Launch site: AIR FORCE EASTERN TEST RANGE (AFETR)
aabbcc
Your satellite tracking list
Your tracking list is empty




NASA's NSSDC Master Catalog

Two Line Element Set (TLE):
1 52358U 22045AD  22186.58334491 -.00715488  00000-0 -21964-1 0  9990
2 52358  53.2175 110.0683 0001372  61.3983 187.5602 15.35736858  1304
Source of the keplerian elements: AFSPC